Wind_Speed
20 19 17 16 15 14 13 13 12 11 11 10 9 7 6 5 5 5 5 5 5 5 5 6 5 5 6 6 6 5 5 5 5 6 6 6 6 6 7 7 8 9 10
23 22 20 18 17 16 15 15 14 14 14 13 13 12 11 10 9 8 8 8 8 8 8 7 7 7 8 8 8 8 8 8 8 8 8 8 8 9 9 10 11 11 12
27 25 23 21 20 18 17 17 17 16 17 16 16 15 14 14 13 13 12 11 11 11 10 10 10 10 10 10 10 10 10 10 10 10 10 11 11 11 12 12 13 14 14
30 28 26 25 23 21 20 19 18 18 18 19 18 18 17 16 16 16 16 15 15 14 14 13 13 13 12 12 12 12 12 12 12 12 12 12 12 13 13 14 14 15 16
32 31 30 28 26 24 23 22 21 21 21 20 20 20 20 19 18 18 19 18 18 18 17 17 16 16 15 15 14 14 14 14 14 14 14 14 14 14 15 15 15 16 17
35 33 32 31 29 26 25 25 24 24 24 23 23 22 22 21 21 21 21 21 21 21 21 20 20 19 19 18 17 17 17 16 17 17 16 16 16 16 16 16 17 17 18
35 33 32 32 31 29 27 26 26 26 27 26 25 24 24 23 23 23 24 24 24 23 23 23 23 22 22 21 21 20 19 19 19 19 18 18 18 17 18 18 18 18 19
36 35 33 31 30 29 28 27 27 26 26 27 28 27 26 25 25 25 25 26 25 25 25 25 25 25 24 24 24 23 22 21 20 20 20 20 20 19 19 19 19 20 20
38 36 36 33 30 27 26 26 25 25 26 27 29 29 29 28 27 27 27 27 27 26 26 26 27 26 26 26 25 25 24 23 23 22 22 22 22 22 21 21 21 21 21
40 38 36 35 32 29 29 28 27 27 26 26 27 28 30 30 29 27 27 28 28 28 28 27 28 28 28 27 27 27 26 25 24 24 24 24 23 23 23 23 22 22 22
43 40 38 36 34 32 31 29 27 26 26 26 27 29 30 30 30 30 29 29 29 29 29 28 28 29 29 29 28 28 27 27 26 26 26 26 25 25 25 24 23 23 23
41 40 38 36 35 34 33 31 29 28 26 26 27 28 30 31 29 30 31 31 31 31 30 29 29 29 29 28 28 28 28 28 28 28 28 28 27 27 26 26 25 24 24
37 38 38 37 35 34 33 33 31 29 27 27 26 26 28 30 32 32 32 32 32 32 32 31 31 30 29 29 29 29 29 29 30 30 30 30 29 28 27 27 26 25 25
35 35 36 35 34 34 33 32 32 30 29 28 28 27 28 29 32 33 34 34 34 34 34 33 32 31 31 31 31 31 32 32 32 32 31 31 30 29 28 27 26 25 25
31 32 33 33 33 33 33 32 32 32 31 31 30 30 30 30 31 32 33 34 35 35 35 34 34 34 34 33 32 33 33 33 33 33 32 32 30 28 27 26 25 25 25
27 29 30 31 32 33 33 34 34 34 34 34 34 33 33 33 33 33 33 33 34 36 36 34 35 35 35 34 34 34 33 32 33 33 31 31 29 27 26 26 26 25 25
23 24 26 29 31 32 33 34 35 36 36 36 37 36 36 35 35 34 34 35 34 34 34 34 35 35 34 34 34 34 32 31 31 30 29 29 27 25 24 24 24 24 25
17 19 22 25 27 29 31 33 34 35 36 36 37 37 37 38 38 37 36 35 35 34 33 33 34 33 33 32 31 31 30 30 30 28 26 25 23 23 23 23 24 24 25
12 14 17 20 22 24 27 29 30 32 33 34 34 35 35 35 36 36 35 35 34 34 33 32 32 31 30 30 29 28 27 26 25 24 23 22 21 21 21 22 23 23 24
6 9 11 14 16 19 21 23 24 27 29 29 30 31 32 32 32 31 32 32 31 31 31 30 29 28 27 26 25 24 22 21 20 19 19 19 19 20 20 21 22 23 23
3 5 7 9 12 15 17 19 21 22 23 25 26 27 27 28 28 28 27 26 26 26 26 25 25 24 22 21 20 19 18 18 18 17 17 18 18 19 19 20 21 21 22
6 5 6 8 11 13 15 16 18 20 20 21 22 23 24 23 24 25 25 24 22 21 21 21 20 19 17 17 16 16 16 16 16 16 16 16 17 18 18 19 19 20 21
9 9 8 9 10 11 13 15 16 16 17 18 19 19 20 20 21 23 23 22 21 19 18 18 17 17 16 15 15 15 14 14 14 14 15 15 16 16 17 17 17 18 19
12 11 11 11 11 10 11 12 15 15 16 16 18 17 18 19 19 20 19 18 18 18 17 17 17 16 15 14 14 14 13 13 13 13 13 14 14 15 15 15 16 17 18
15 14 14 14 12 11 9 10 12 13 15 16 16 17 17 18 18 18 18 18 17 17 16 16 15 14 14 14 13 13 12 12 12 12 12 12 12 12 12 13 13 14 15
17 17 16 16 14 12 11 10 10 11 13 14 14 15 16 17 18 18 18 18 17 16 15 15 14 14 14 13 13 12 11 11 11 10 10 10 9 9 10 10 10 11 12
Wind_Direction
249 249 247 245 243 241 239 238 238 238 237 235 231 227 227 227 224 219 215 214 213 213 216 215 216 218 221 222 224 228 233 239 243 248 253 259 264 270 273 274 274 274 275
246 247 247 246 245 244 242 241 241 240 239 238 237 235 234 236 236 233 230 230 230 230 229 228 230 231 233 234 235 237 238 241 245 249 253 258 262 266 271 274 275 274 275
243 243 244 245 245 244 244 244 243 243 243 242 240 238 237 238 240 239 236 235 236 236 236 236 237 238 240 241 241 242 242 244 246 249 253 257 261 264 268 272 274 275 274
240 241 243 245 244 245 246 246 246 245 245 244 242 240 239 239 241 242 242 241 240 240 241 241 242 242 244 245 246 247 247 248 249 250 253 256 260 264 267 270 273 275 275
241 242 243 244 244 246 248 247 249 249 248 246 244 242 241 241 243 244 245 244 245 244 245 246 246 246 246 247 248 249 251 252 252 253 253 256 260 264 267 269 271 273 274
245 245 246 245 244 246 248 249 249 251 250 248 246 244 244 245 245 246 247 247 247 248 249 249 250 248 248 249 250 250 252 254 254 255 256 257 261 264 266 269 271 273 273
248 250 251 250 247 248 250 252 252 253 252 249 247 247 247 247 248 249 249 249 250 251 250 251 251 250 250 251 252 252 252 254 256 257 258 260 261 264 267 269 271 273 273
249 252 252 254 253 251 253 256 257 256 255 253 250 249 249 248 250 251 251 251 252 253 253 253 252 252 253 253 252 252 253 255 257 258 260 262 264 266 269 270 271 272 273
251 251 254 255 255 258 259 257 258 259 257 256 253 250 248 248 250 252 252 252 253 254 256 255 254 254 254 255 254 253 254 255 258 260 262 264 266 268 270 271 272 273 273
250 251 253 256 257 258 259 261 262 262 261 257 254 251 248 247 248 250 252 253 254 255 256 255 254 255 255 256 256 255 255 257 258 261 262 264 266 268 269 269 272 273 273
251 252 254 256 258 259 260 261 263 262 261 258 256 253 249 247 248 247 250 253 255 255 255 254 255 255 256 256 256 256 257 258 260 261 263 265 267 269 269 269 271 273 273
251 252 253 256 258 259 260 261 261 261 260 258 256 253 249 248 248 248 249 250 252 254 254 254 255 256 257 256 256 257 257 259 260 262 264 265 267 268 269 269 271 273 273
249 250 252 254 255 256 256 257 257 257 257 257 255 252 249 247 248 249 248 248 248 252 254 254 255 255 256 256 257 257 259 260 261 263 264 265 266 267 268 269 271 272 272
245 246 248 249 250 250 250 251 251 251 253 253 252 251 250 250 250 249 249 248 247 249 252 253 254 255 256 258 258 258 261 262 262 263 263 264 266 267 267 268 270 271 272
242 243 244 245 246 246 246 247 247 248 249 250 251 253 254 254 253 252 252 250 248 247 248 252 254 255 256 258 258 261 261 262 262 262 263 264 265 266 266 268 270 272 273
240 241 241 242 243 244 245 245 247 248 249 249 250 251 252 253 253 253 253 254 252 249 250 251 253 254 256 258 260 262 261 261 262 261 262 263 263 264 266 268 269 272 274
240 241 242 242 242 243 244 245 246 248 249 250 251 251 251 252 253 253 254 254 255 252 252 251 252 256 259 258 259 260 259 260 260 259 259 260 260 263 265 269 271 274 275
240 242 243 244 244 244 245 246 246 247 249 250 251 251 251 252 252 252 254 254 254 255 254 253 253 255 256 256 256 259 260 259 258 257 257 257 259 262 266 270 273 275 276
243 245 245 244 245 245 246 247 247 248 248 249 248 248 249 250 248 250 251 252 252 253 252 251 252 253 254 253 256 257 257 258 255 253 255 257 259 263 268 272 274 276 278
255 253 252 252 250 249 248 248 247 248 247 246 246 246 246 246 246 246 246 248 248 248 248 248 248 249 250 251 252 251 251 251 250 251 252 256 261 265 270 273 275 278 281
314 283 272 266 262 256 252 249 247 246 243 243 244 244 245 243 241 241 240 241 241 241 241 241 242 244 244 243 242 240 240 241 244 245 251 255 260 265 270 274 278 280 282
5 336 308 292 281 269 260 255 252 248 244 242 241 240 237 234 234 235 235 234 235 233 232 232 231 231 232 231 230 231 234 237 242 246 253 258 264 268 273 276 279 281 284
11 359 342 322 304 286 269 261 256 253 249 241 235 233 231 228 228 229 226 223 223 221 221 221 219 220 221 221 222 225 231 238 244 249 255 261 266 271 275 278 281 285 287
12 3 352 340 324 304 283 269 261 257 251 244 235 228 225 221 219 217 214 214 214 213 212 212 212 213 215 217 222 227 232 238 244 249 255 262 267 272 277 281 284 287 289
15 8 1 352 342 326 306 285 269 260 253 242 233 227 222 217 214 211 209 209 209 209 208 209 212 214 218 222 226 230 234 240 244 249 255 263 269 275 279 283 287 291 296
18 12 6 0 353 342 325 305 284 267 251 241 231 223 217 211 207 208 208 205 205 207 207 209 211 215 217 220 226 231 234 238 243 248 254 262 268 275 282 287 293 299 304
Height
5902 5903 5904 5904 5905 5906 5907 5908 5908 5909 5910 5910 5911 5912 5912 5913 5913 5914 5914 5915 5916 5916 5917 5917 5918 5918 5918 5919 5919 5919 5919 5919 5919 5919 5919 5919 5919 5919 5918 5918 5918 5918 5919
5897 5898 5899 5900 5901 5902 5903 5904 5905 5906 5907 5908 5908 5909 5910 5911 5911 5912 5913 5913 5914 5914 5915 5916 5916 5917 5917 5917 5917 5918 5918 5918 5918 5917 5917 5917 5917 5917 5916 5916 5916 5916 5916
5891 5892 5894 5895 5896 5897 5899 5900 5901 5902 5903 5904 5905 5906 5907 5907 5908 5909 5910 5911 5912 5912 5913 5913 5914 5914 5915 5915 5915 5916 5916 5916 5916 5915 5915 5915 5914 5914 5914 5914 5913 5913 5913
5885 5886 5888 5889 5891 5892 5893 5895 5896 5897 5898 5899 5900 5902 5903 5904 5905 5906 5907 5908 5909 5909 5910 5911 5911 5912 5912 5912 5913 5913 5913 5913 5913 5913 5912 5912 5911 5911 5911 5910 5910 5910 5909
5878 5879 5881 5882 5884 5886 5887 5889 5890 5892 5893 5894 5896 5897 5898 5899 5900 5902 5903 5904 5904 5905 5906 5907 5908 5908 5909 5909 5910 5910 5910 5910 5910 5910 5909 5909 5908 5908 5907 5907 5906 5906 5905
5870 5872 5873 5875 5877 5879 5880 5882 5884 5885 5887 5889 5890 5892 5893 5894 5895 5897 5898 5899 5900 5901 5902 5903 5903 5904 5905 5906 5906 5906 5907 5907 5906 5906 5906 5905 5905 5904 5903 5903 5902 5902 5901
5863 5865 5866 5868 5870 5872 5874 5875 5877 5878 5880 5882 5884 5886 5887 5889 5890 5891 5893 5894 5895 5896 5896 5897 5898 5899 5900 5901 5902 5902 5902 5903 5902 5902 5902 5901 5901 5900 5899 5898 5898 5897 5896
5855 5857 5859 5861 5863 5865 5867 5868 5870 5872 5873 5875 5877 5879 5881 5883 5884 5885 5887 5888 5889 5890 5891 5892 5893 5894 5895 5896 5896 5897 5898 5898 5898 5898 5898 5897 5896 5895 5895 5894 5893 5892 5891
5846 5849 5851 5853 5855 5857 5859 5861 5863 5865 5866 5868 5870 5872 5874 5876 5877 5879 5880 5882 5883 5884 5885 5886 5887 5888 5889 5890 5891 5892 5892 5893 5893 5893 5893 5892 5891 5891 5890 5889 5888 5887 5886
5838 5840 5842 5845 5847 5849 5852 5854 5856 5858 5859 5861 5862 5864 5867 5868 5870 5872 5873 5875 5876 5877 5878 5879 5880 5881 5883 5884 5885 5886 5886 5887 5887 5887 5887 5887 5886 5885 5885 5884 5883 5882 5881
5828 5831 5834 5837 5839 5842 5844 5846 5849 5851 5853 5854 5855 5857 5859 5860 5863 5865 5867 5868 5869 5870 5871 5873 5874 5875 5876 5877 5878 5880 5880 5881 5881 5882 5881 5881 5881 5880 5879 5878 5877 5876 5875
5818 5822 5825 5828 5831 5834 5836 5838 5841 5843 5845 5846 5848 5849 5851 5853 5855 5857 5859 5860 5861 5863 5864 5866 5867 5868 5869 5870 5872 5873 5874 5874 5875 5875 5875 5875 5874 5874 5873 5872 5871 5870 5869
5809 5812 5816 5819 5822 5825 5828 5830 5833 5835 5837 5839 5841 5842 5844 5846 5848 5849 5851 5852 5854 5855 5857 5858 5860 5861 5862 5863 5865 5866 5866 5867 5868 5868 5868 5868 5867 5867 5866 5866 5865 5864 5863
5800 5804 5807 5810 5814 5817 5819 5822 5824 5827 5829 5831 5833 5835 5836 5838 5839 5841 5843 5844 5845 5847 5849 5851 5852 5853 5855 5856 5857 5858 5859 5859 5860 5860 5860 5860 5860 5860 5859 5859 5859 5858 5857
5792 5795 5799 5802 5805 5808 5811 5813 5816 5818 5821 5823 5825 5827 5828 5830 5831 5832 5834 5836 5838 5839 5841 5842 5844 5845 5846 5848 5849 5850 5851 5851 5852 5852 5852 5852 5852 5853 5853 5852 5852 5851 5851
5785 5788 5791 5793 5796 5799 5802 5805 5807 5809 5812 5814 5816 5818 5820 5821 5823 5824 5825 5827 5829 5830 5832 5833 5835 5837 5838 5839 5841 5841 5842 5843 5843 5844 5844 5845 5845 5845 5846 5846 5845 5845 5844
5780 5782 5784 5786 5788 5791 5794 5796 5798 5801 5803 5805 5807 5809 5811 5812 5814 5816 5817 5819 5820 5822 5823 5825 5827 5828 5830 5831 5832 5833 5834 5835 5835 5836 5837 5837 5838 5838 5839 5839 5839 5839 5838
5775 5777 5778 5780 5782 5784 5786 5788 5790 5791 5793 5795 5797 5799 5801 5803 5805 5807 5809 5810 5812 5813 5815 5816 5818 5820 5821 5823 5824 5825 5826 5827 5828 5828 5829 5830 5831 5832 5833 5833 5833 5833 5832
5772 5773 5774 5775 5776 5777 5778 5780 5781 5783 5784 5786 5788 5789 5791 5793 5796 5798 5800 5802 5803 5805 5807 5808 5810 5812 5813 5815 5816 5818 5819 5820 5820 5822 5823 5825 5826 5827 5827 5827 5827 5827 5826
5771 5771 5771 5771 5771 5772 5772 5773 5774 5775 5776 5777 5779 5780 5782 5784 5787 5789 5791 5793 5795 5797 5799 5801 5803 5804 5806 5808 5810 5811 5813 5814 5815 5817 5818 5820 5821 5822 5822 5822 5821 5821 5820
5769 5769 5768 5768 5767 5767 5767 5767 5767 5768 5769 5770 5771 5772 5774 5777 5779 5781 5784 5786 5788 5790 5792 5794 5796 5798 5800 5802 5804 5806 5808 5810 5811 5813 5814 5815 5816 5817 5817 5816 5816 5815 5814
5769 5767 5766 5765 5763 5762 5761 5761 5761 5761 5762 5763 5764 5766 5768 5770 5772 5775 5777 5780 5782 5784 5786 5788 5790 5793 5795 5797 5800 5802 5804 5806 5807 5809 5810 5811 5812 5812 5812 5812 5811 5810 5809
5768 5766 5764 5761 5759 5757 5756 5755 5755 5756 5756 5757 5758 5760 5762 5764 5766 5769 5771 5774 5777 5779 5782 5784 5786 5789 5791 5794 5796 5798 5801 5802 5804 5805 5806 5807 5808 5808 5808 5807 5806 5805 5804
5768 5765 5762 5759 5756 5753 5751 5751 5751 5751 5751 5752 5753 5755 5757 5759 5761 5764 5767 5770 5772 5775 5778 5781 5783 5786 5788 5791 5793 5796 5797 5799 5801 5802 5803 5804 5804 5804 5804 5803 5802 5801 5800
5768 5764 5761 5757 5753 5750 5748 5746 5745 5745 5746 5746 5748 5749 5752 5754 5757 5760 5763 5766 5769 5772 5775 5778 5781 5783 5786 5788 5791 5793 5795 5796 5798 5799 5800 5800 5800 5800 5800 5799 5798 5797 5796
5768 5764 5760 5756 5752 5748 5745 5742 5741 5740 5740 5741 5743 5744 5746 5749 5753 5756 5759 5763 5766 5769 5772 5775 5778 5781 5784 5786 5788 5790 5792 5794 5795 5796 5797 5797 5797 5797 5797 5796 5795 5794 5792